Regional Weather Roundup
Issued by NWS Cleveland, OH

Home | Current Version | Previous Version | Text Only | Print | Product List | Glossary Off
Versions: 1 2 3 4 5 6 7 8 9 10 11 12 13 14 15 16 17 18 19 20 21 22 23 24 25 26 27 28 29 30 31 32 33 34 35 36 37 38 39 40 41 42 43 44 45 46 47 48 49 50

000
ASUS41 KCLE 230110
RWRCLE
OHIO REGIONAL WEATHER ROUNDUP
NATIONAL WEATHER SERVICE CLEVELAND, OH
900 PM EDT FRI SEP 22 2017

NOTE: "FAIR" INDICATES FEW OR NO CLOUDS BELOW 12,000 FEET WITH NO
SIGNIFICANT WEATHER AND/OR OBSTRUCTIONS TO VISIBILITY.

OHZ001>008-015>018-024>027-034-035-043-044-230200-
   NORTHWEST OHIO

CITY           SKY/WX    TMP DP  RH WIND       PRES   REMARKS
DEFIANCE       CLEAR     76  68  76 CALM      30.07S
FINDLAY        CLEAR     78  63  59 NE6       30.08R
TOLEDO EXPRESS PTCLDY    74  71  91 CALM      30.07S
TOLEDO EXEC    CLEAR     74  66  76 E7        30.08S
LIMA           CLEAR     77  67  71 NE5       30.09R
$$

OHZ009>014-019>023-028>033-038-089-230200-
   NORTHEAST OHIO

CITY           SKY/WX    TMP DP  RH WIND       PRES   REMARKS
CLE-HOPKINS    CLEAR     77  62  59 E3        30.10S
CLE-LAKEFRONT  CLEAR     72  66  81 CALM      30.07S
CUY CO. ARPT   CLEAR     70  63  78 CALM      30.10S
LORAIN-ELYRIA  CLEAR     67  58  72 CALM      30.09S
ASHTABULA      CLEAR     62  60  93 CALM      30.12R
AKRON-CANTON   CLOUDY    73  56  54 NE7       30.11R
WOOSTER        CLEAR     65  63  93 CALM      30.11R
MANSFIELD      CLEAR     74  64  71 NE6       30.11S
YOUNGSTOWN     MOCLDY    68  61  78 NE5       30.11R
$$

OHZ042-051>053-060>062-070>072-077>081-230200-
  SOUTHWEST OHIO

CITY           SKY/WX    TMP DP  RH WIND       PRES   REMARKS
CINC-COVINGTON CLEAR     76  69  79 CALM      30.06R
CINC-LUNKEN    CLEAR     72  70  93 CALM      30.06R
HAMILTON       CLEAR     71  69  93 CALM      30.06R
DAYTON         CLEAR     78  64  61 SE6       30.08R
WRIGHT-PAT AFB PTCLDY    74  68  80 CALM      30.07R
DAYTON GENERAL CLEAR     77  66  68 SE6       30.06S
WILMINGTON     CLEAR     70  67  90 CALM      30.08R
$$

OHZ036-037-039>041-045>050-054>059-063>069-073>076-082>088-230200-
  CENTRAL AND SOUTHEAST OHIO

CITY           SKY/WX    TMP DP  RH WIND       PRES   REMARKS
COLUMBUS       MOCLDY    77  68  73 E6        30.07R
OSU AIRPORT    CLEAR     76  67  73 NE3       30.08R
BOLTON FIELD   CLEAR     72  67  86 W7        30.08R
RICKENBACK AFB CLEAR     73  66  78 E3        30.07R
NEWARK         MOCLDY    71  68  90 CALM      30.07S
MARION         CLEAR     73  60  63 NE6       30.09R
LANCASTER      PTCLDY    69  66  90 CALM      30.08R
ZANESVILLE     MOCLDY    76  66  71 CALM      30.08R
NEW PHILLY     NOT AVBL
$$




USA.gov is the U.S. government's official web portal to all federal, state and local government web resources and services.